[[{"header":{"parameterUnit":"m.s-1","parameterCategory":1,"la1":30.2991,"la2":30.254,"lo1":-89.0895,"lo2":-89.0444,"dy":0.0017,"dx":0.0017,"nx":28,"ny":28,"refTime":"2025-09-14T21:00:00:Z","depth":0,"parameterNumber":2,"parameterNumberName":"U-component_of_WINDS"},"data":[0,0,0,0,0,0,0,0,0,0,0,0,0,0,0,0,0,0,0,0,0,0,0,0,0,0,0,0,0,0,0,0,0,0,0,0,0,0,0,0,0,0,0,0,0,0,0,0,0,0,0,0,0,0,0,0,0,0,-0.6703,-0.6703,0,-0.6758,-0.6759,-0.6759,-0.6702,-0.67,-0.6698,-0.6696,-0.6756,-0.6759,-0.6763,0,0,0,0,0,0,0,0,0,0,0,0,0,-0.6548,-0.6552,-0.6702,-0.6703,-0.6704,-0.6758,-0.6759,-0.676,-0.6703,-0.67,-0.6697,-0.6695,-0.6754,-0.6759,-0.6763,0,0,0,0,0,0,0,0,0,0,0,0,0,-0.6611,-0.6553,-0.6702,-0.6682,-0.6681,-0.6758,-0.6759,-0.676,-0.6703,-0.67,-0.6696,-0.6693,-0.6753,-0.6758,-0.6764,-0.6865,0,0,-0.6781,-0.6783,0,0,0,0,0,0,0,0,-0.6607,-0.6617,-0.6684,-0.6683,-0.6682,-0.672,-0.6726,-0.6795,-0.6704,-0.6695,-0.6695,-0.6692,-0.6747,-0.6752,-0.677,-0.6868,-0.687,-0.6781,-0.6785,-0.6787,-0.6788,0,0,0,0,0,0,0,-0.6603,-0.6614,-0.6725,-0.6685,-0.6684,-0.667,-0.6676,-0.6739,-0.6739,-0.6695,-0.6691,-0.6698,-0.6745,-0.6765,-0.6771,-0.6871,-0.6781,-0.6786,-0.6789,-0.6791,-0.7054,-0.7058,0,0,0,0,0,0,-0.6601,-0.6611,-0.6723,-0.6726,-0.6636,-0.6676,-0.6682,-0.6711,-0.6738,-0.6739,-0.6701,-0.6695,-0.6757,-0.6765,-0.6773,-0.6894,-0.6787,-0.6792,-0.6795,-0.705,-0.7055,-0.7059,0,0,0,0,0,0,-0.6598,-0.6611,-0.6721,-0.6667,-0.668,-0.6682,-0.6716,-0.6714,-0.6734,-0.6742,-0.6742,-0.6721,-0.6755,-0.6765,-0.6842,-0.6895,-0.6795,-0.68,-0.7046,-0.7052,-0.7057,-0.7136,0,0,0,0,0,0,-0.6594,-0.6611,-0.6649,-0.6669,-0.6683,-0.6789,-0.6719,-0.6717,-0.6743,-0.6736,-0.6761,-0.6762,-0.6753,-0.6834,-0.6848,-0.6901,-0.6804,-0.7041,-0.7049,-0.7055,-0.7129,-0.7143,-0.7156,0,0,0,0,0,-0.6588,-0.667,-0.6651,-0.6665,-0.6731,-0.6792,-0.68,-0.6787,-0.6747,-0.6786,-0.6791,-0.6762,-0.6886,-0.6843,-0.6857,-0.6913,-0.7038,-0.7047,-0.7055,-0.7122,-0.714,-0.7156,0,0,0,0,0,0,-0.6658,-0.6672,-0.6652,-0.6742,-0.6766,-0.6782,-0.6831,-0.6807,-0.6843,-0.6836,-0.6818,-0.6825,-0.6906,-0.6917,-0.6868,-0.7012,-0.6956,-0.6968,-0.7003,-0.702,-0.7033,-0.703,-0.6808,0,0,0,0,0,-0.6683,-0.6731,-0.6741,-0.6819,-0.6832,-0.6829,-0.6855,-0.6843,-0.6867,-0.6878,-0.6889,-0.6915,-0.6959,-0.699,-0.7032,-0.7129,-0.7134,-0.7174,-0.7188,-0.7199,-0.721,-0.7262,-0.728,-0.7086,-0.7086,-0.7086,0,0,-0.6737,-0.6751,-0.6782,-0.6833,-0.6851,-0.6901,-0.6838,-0.6894,-0.6931,-0.6886,-0.696,-0.6969,-0.6996,-0.7084,-0.7123,-0.7095,-0.7264,-0.7209,-0.7218,-0.7223,-0.7273,-0.7291,-0.7307,-0.7091,-0.709,-0.709,0,0,-0.6861,-0.6876,-0.6943,-0.6961,-0.6987,-0.6984,-0.7,-0.702,-0.7023,-0.7096,-0.7063,-0.7107,-0.7185,-0.7206,-0.7227,-0.7356,-0.7331,-0.737,-0.7443,-0.7494,-0.751,-0.7523,-0.7571,-0.7588,-0.7381,-0.7381,-0.7381,0,-0.6926,-0.6999,-0.6981,-0.7039,-0.7062,-0.7022,-0.709,-0.7108,-0.7148,-0.7165,-0.7133,-0.7229,-0.7245,-0.7337,-0.7368,-0.7386,-0.7404,-0.7369,-0.7509,-0.7522,-0.7534,-0.7579,-0.7597,-0.7386,-0.7385,-0.7385,-0.7384,0,-0.7077,-0.7128,-0.7179,-0.7217,-0.7246,-0.7309,-0.73,-0.7332,-0.7316,-0.7317,-0.7391,-0.7408,-0.7453,-0.7473,-0.7459,-0.7563,-0.7545,-0.7511,-0.7455,-0.7558,-0.76,-0.7617,-0.7393,-0.7391,-0.7389,-0.7388,0,0,-0.7249,-0.7274,-0.7293,-0.731,-0.7334,-0.7374,-0.7434,-0.7477,-0.7505,-0.7532,-0.7583,-0.7649,-0.7617,-0.7641,-0.7628,-0.7673,-0.7775,-0.7633,-0.7633,-0.766,-0.7892,-0.7919,-0.7939,-0.7757,-0.776,-0.7762,-0.789,0,-0.7375,-0.748,-0.7464,-0.7565,-0.7613,-0.7574,-0.7626,-0.7647,-0.7649,-0.769,-0.7692,-0.7739,-0.7693,-0.7707,-0.7749,-0.7754,-0.7822,-0.7744,-0.7806,-0.7808,-0.7802,-0.7961,-0.7989,-0.8109,-0.7906,-0.7909,-0.7911,0,-0.7536,-0.7569,-0.7674,-0.7691,-0.771,-0.7758,-0.7795,-0.7834,-0.7857,-0.7855,-0.788,-0.7859,-0.792,-0.786,-0.7944,-0.7892,-0.7916,-0.7921,-0.7926,-0.7933,-0.7867,-0.7974,-0.8147,-0.8166,-0.7936,-0.7934,-0.7932,0,-0.7653,-0.7723,-0.7795,-0.781,-0.7831,-0.7865,-0.7876,-0.7895,-0.7921,-0.7953,-0.797,-0.8009,-0.8031,-0.8062,-0.8052,-0.8009,-0.8139,-0.8078,-0.814,-0.814,-0.8171,-0.817,-0.8352,-0.8183,-0.8183,-0.8182,-0.8182,0,-0.7796,-0.7863,-0.7847,-0.7892,-0.7965,-0.7946,-0.802,-0.8025,-0.8042,-0.8088,-0.8056,-0.8099,-0.8082,-0.8125,-0.8117,-0.8188,-0.8198,-0.8199,-0.8197,-0.8203,-0.8203,-0.822,-0.8212,-0.8187,-0.8186,-0.8185,-0.8184,0,-0.794,-0.7932,-0.8009,-0.8021,-0.8026,-0.808,-0.8091,-0.8133,-0.8131,-0.8189,-0.8201,-0.8199,-0.8247,-0.8239,-0.8292,-0.8287,-0.8376,-0.8363,-0.8369,-0.8366,-0.8429,-0.8424,-0.8631,-0.8657,-0.8469,-0.8471,-0.8472,0,-0.8034,-0.8084,-0.8101,-0.8129,-0.8141,-0.8186,-0.8212,-0.8194,-0.8223,-0.8252,-0.8291,-0.8335,-0.8371,-0.8449,-0.8453,-0.8494,-0.8482,-0.8551,-0.8488,-0.8493,-0.8485,-0.8483,-0.8488,-0.8565,-0.8567,-0.8569,-0.857,0,-0.82,-0.8193,-0.8231,-0.8268,-0.83,-0.8328,-0.8353,-0.8378,-0.8362,-0.8396,-0.8444,-0.8471,-0.8525,-0.857,-0.8608,-0.8619,-0.8593,-0.8589,-0.8606,-0.8615,-0.8617,-0.8618,-0.8405,-0.8586,-0.8584,-0.8583,-0.8582,-0.8581,-0.8322,-0.8365,-0.8384,-0.8427,-0.8444,-0.8468,-0.8508,-0.851,-0.855,-0.8592,-0.8578,-0.8634,-0.8654,-0.8702,-0.8717,-0.876,-0.8734,-0.8758,-0.8764,-0.8771,-0.8779,-0.8608,-0.8766,-0.8766,-0.8765,-0.8765,-0.8765,0,-0.8488,-0.8498,-0.8538,-0.8574,-0.8608,-0.8577,-0.8604,-0.8635,-0.8683,-0.8704,-0.8739,-0.8794,-0.8837,-0.8843,-0.8884,-0.8917,-0.8906,-0.8929,-0.8927,-0.8931,-0.8799,-0.8781,-0.8937,-0.8937,-0.8937,-0.8937,-0.8937,-0.8937,-0.8579,-0.865,-0.8645,-0.8723,-0.8732,-0.8785,-0.8803,-0.8825,-0.8841,-0.8904,-0.8939,-0.8942,-0.8957,-0.8999,-0.9037,-0.9037,-0.9055,-0.9083,-0.9079,-0.8957,-0.894,-0.8923,-0.8907,-0.9086,-0.9086,-0.9207,-0.9208,-0.9209]},{"header":{"parameterUnit":"m.s-1","parameterCategory":1,"la1":30.2991,"la2":30.254,"lo1":-89.0895,"lo2":-89.0444,"dy":0.0017,"dx":0.0017,"nx":28,"ny":28,"refTime":"2025-09-14T21:00:00:Z","depth":0,"parameterNumber":3,"parameterNumberName":"V-component_of_WINDS"},"data":[0,0,0,0,0,0,0,0,0,0,0,0,0,0,0,0,0,0,0,0,0,0,0,0,0,0,0,0,0,0,0,0,0,0,0,0,0,0,0,0,0,0,0,0,0,0,0,0,0,0,0,0,0,0,0,0,0,0,-1.4628,-1.4628,0,-1.4692,-1.4692,-1.4693,-1.4687,-1.4687,-1.4686,-1.4685,-1.4749,-1.4752,-1.4755,0,0,0,0,0,0,0,0,0,0,0,0,0,-1.45,-1.4503,-1.4628,-1.4628,-1.4629,-1.4692,-1.4692,-1.4693,-1.4688,-1.4686,-1.4685,-1.4684,-1.4749,-1.4752,-1.4755,0,0,0,0,0,0,0,0,0,0,0,0,0,-1.4559,-1.4504,-1.4627,-1.4634,-1.4635,-1.4691,-1.4692,-1.4694,-1.4688,-1.4686,-1.4685,-1.4684,-1.4748,-1.4751,-1.4755,-1.4809,0,0,-1.4767,-1.4769,0,0,0,0,0,0,0,0,-1.4556,-1.4564,-1.4632,-1.4634,-1.4635,-1.468,-1.4671,-1.4732,-1.4688,-1.4668,-1.4685,-1.4683,-1.4728,-1.4733,-1.4748,-1.4812,-1.4815,-1.4768,-1.477,-1.4772,-1.4773,0,0,0,0,0,0,0,-1.4552,-1.4561,-1.4653,-1.4633,-1.4635,-1.4634,-1.464,-1.4683,-1.4705,-1.467,-1.4669,-1.4677,-1.4728,-1.4744,-1.475,-1.4816,-1.4768,-1.4771,-1.4774,-1.4775,-1.4929,-1.493,0,0,0,0,0,0,-1.4546,-1.4558,-1.4651,-1.4655,-1.4591,-1.4637,-1.4645,-1.4667,-1.4705,-1.4709,-1.4678,-1.4676,-1.4738,-1.4745,-1.4752,-1.4819,-1.4772,-1.4776,-1.4778,-1.4927,-1.4929,-1.4931,0,0,0,0,0,0,-1.4543,-1.4555,-1.4648,-1.4606,-1.4618,-1.4641,-1.4666,-1.4669,-1.4686,-1.4711,-1.4715,-1.4691,-1.4738,-1.4746,-1.4795,-1.4821,-1.4777,-1.4781,-1.4925,-1.4928,-1.493,-1.4952,0,0,0,0,0,0,-1.454,-1.4554,-1.4574,-1.4607,-1.462,-1.4691,-1.4668,-1.4671,-1.4693,-1.4691,-1.4724,-1.4728,-1.4737,-1.4789,-1.4799,-1.4826,-1.4784,-1.4923,-1.4926,-1.4929,-1.4949,-1.4955,-1.496,0,0,0,0,0,-1.4535,-1.4577,-1.4575,-1.4587,-1.4647,-1.4692,-1.47,-1.4709,-1.4695,-1.4716,-1.4732,-1.4727,-1.4816,-1.4795,-1.4806,-1.4833,-1.4921,-1.4925,-1.4929,-1.4947,-1.4954,-1.496,0,0,0,0,0,0,-1.4547,-1.4582,-1.458,-1.4634,-1.466,-1.4691,-1.4718,-1.4716,-1.4747,-1.4745,-1.4755,-1.4762,-1.4812,-1.4827,-1.4802,-1.4888,-1.4867,-1.4873,-1.4877,-1.4884,-1.4889,-1.4885,-1.4787,0,0,0,0,0,-1.4556,-1.459,-1.4618,-1.4663,-1.4677,-1.4695,-1.4715,-1.472,-1.4748,-1.4759,-1.4779,-1.4806,-1.484,-1.4862,-1.4895,-1.4951,-1.4959,-1.4975,-1.4981,-1.4985,-1.4991,-1.5023,-1.5031,-1.4943,-1.4943,-1.4943,0,0,-1.4574,-1.4598,-1.4618,-1.4666,-1.4687,-1.4723,-1.4704,-1.4742,-1.4769,-1.4765,-1.4813,-1.4828,-1.4859,-1.4912,-1.4936,-1.4926,-1.5017,-1.499,-1.4993,-1.4997,-1.5028,-1.5036,-1.5044,-1.4946,-1.4946,-1.4945,0,0,-1.4627,-1.4647,-1.4688,-1.4709,-1.4742,-1.4754,-1.4763,-1.4795,-1.4806,-1.4854,-1.4852,-1.4883,-1.4941,-1.4964,-1.4983,-1.5045,-1.5042,-1.5055,-1.5084,-1.5115,-1.5122,-1.5129,-1.5152,-1.516,-1.506,-1.506,-1.506,0,-1.4646,-1.4699,-1.4708,-1.4747,-1.4769,-1.4767,-1.4808,-1.4829,-1.487,-1.4885,-1.4873,-1.4947,-1.4967,-1.5027,-1.5042,-1.5057,-1.5069,-1.5052,-1.5121,-1.5127,-1.5133,-1.5156,-1.5164,-1.5062,-1.5062,-1.5062,-1.5061,0,-1.4722,-1.4759,-1.4788,-1.4829,-1.4853,-1.4893,-1.4908,-1.4932,-1.4935,-1.4949,-1.4998,-1.5023,-1.5061,-1.5075,-1.5078,-1.5135,-1.5128,-1.5118,-1.5097,-1.5143,-1.5164,-1.5173,-1.5064,-1.5064,-1.5063,-1.5063,0,0,-1.4784,-1.483,-1.484,-1.486,-1.4895,-1.4924,-1.4964,-1.5002,-1.5023,-1.5051,-1.5086,-1.5136,-1.5127,-1.5149,-1.5154,-1.5181,-1.5231,-1.5168,-1.5169,-1.518,-1.5297,-1.5305,-1.5315,-1.5228,-1.523,-1.5231,-1.5295,0,-1.4841,-1.4913,-1.4922,-1.4986,-1.5021,-1.502,-1.5055,-1.5081,-1.5094,-1.5126,-1.5141,-1.5177,-1.5162,-1.5175,-1.5202,-1.5219,-1.5254,-1.5214,-1.5261,-1.5263,-1.5255,-1.5326,-1.5335,-1.5394,-1.5303,-1.5304,-1.5305,0,-1.4918,-1.4949,-1.5016,-1.5049,-1.5064,-1.5095,-1.5132,-1.5162,-1.5191,-1.5199,-1.5224,-1.5226,-1.5268,-1.5244,-1.5303,-1.5275,-1.5295,-1.5306,-1.5309,-1.5315,-1.5288,-1.5335,-1.5412,-1.5422,-1.5318,-1.5317,-1.5316,0,-1.4958,-1.5017,-1.5066,-1.5082,-1.512,-1.5143,-1.5159,-1.5187,-1.521,-1.5242,-1.5257,-1.5292,-1.5312,-1.534,-1.5352,-1.5333,-1.541,-1.5387,-1.5419,-1.5419,-1.5436,-1.5435,-1.5519,-1.5446,-1.5446,-1.5446,-1.5445,0,-1.5022,-1.5064,-1.5085,-1.5115,-1.5161,-1.5172,-1.5218,-1.5234,-1.5259,-1.5292,-1.5293,-1.5324,-1.5337,-1.537,-1.5379,-1.5427,-1.5436,-1.5444,-1.5446,-1.5445,-1.5444,-1.5459,-1.5456,-1.5448,-1.5447,-1.5447,-1.5447,0,-1.5076,-1.5092,-1.5144,-1.5177,-1.5186,-1.5219,-1.5247,-1.5276,-1.5289,-1.5331,-1.5342,-1.5363,-1.5402,-1.5416,-1.5464,-1.547,-1.5526,-1.5524,-1.5517,-1.5517,-1.5549,-1.5547,-1.5647,-1.5661,-1.5577,-1.5578,-1.5579,0,-1.5117,-1.5149,-1.5185,-1.5207,-1.5225,-1.5261,-1.5285,-1.5296,-1.5321,-1.5357,-1.5382,-1.5422,-1.5454,-1.5517,-1.5536,-1.5573,-1.5573,-1.5605,-1.5578,-1.5577,-1.5575,-1.5574,-1.5578,-1.5611,-1.5612,-1.5612,-1.5613,0,-1.5188,-1.5194,-1.5228,-1.5265,-1.5293,-1.5323,-1.5351,-1.537,-1.5386,-1.5413,-1.5454,-1.5479,-1.5528,-1.5567,-1.5605,-1.5622,-1.5621,-1.5621,-1.5631,-1.5631,-1.5626,-1.5631,-1.5532,-1.5619,-1.5619,-1.5618,-1.5618,-1.5618,-1.5237,-1.5267,-1.5297,-1.5335,-1.5358,-1.5385,-1.5415,-1.5432,-1.5466,-1.5507,-1.5512,-1.5556,-1.5585,-1.5636,-1.5655,-1.569,-1.5681,-1.5695,-1.5698,-1.5702,-1.5705,-1.5619,-1.5696,-1.5696,-1.5696,-1.5696,-1.5696,0,-1.531,-1.533,-1.5365,-1.5405,-1.5436,-1.5431,-1.5463,-1.5489,-1.5528,-1.5555,-1.5587,-1.5634,-1.5673,-1.5695,-1.5734,-1.5758,-1.5758,-1.5767,-1.5767,-1.5771,-1.571,-1.5699,-1.5767,-1.5767,-1.5767,-1.5767,-1.5767,-1.5767,-1.5351,-1.5401,-1.5411,-1.5472,-1.5492,-1.5535,-1.5554,-1.5579,-1.5602,-1.5655,-1.5687,-1.5701,-1.5727,-1.5768,-1.5803,-1.5809,-1.5824,-1.5834,-1.5839,-1.5782,-1.5775,-1.5768,-1.5758,-1.5837,-1.5837,-1.5898,-1.5898,-1.5899]}]]